Regional Weather Roundup
Issued by NWS

Home | Current Version | Previous Version | Graphics & Text | Print | Product List | Glossary On
Versions: 1 2 3 4 5 6 7 8 9 10 11 12 13 14 15 16 17 18 19 20 21 22 23 24 25 26 27 28 29 30 31 32 33 34 35 36 37 38 39 40 41 42 43 44 45 46 47 48 49 50
000
ASUS43 KMPX 251901
RWRMN
WEATHER ROUNDUP FOR MINNESOTA
NATIONAL WEATHER SERVICE TWIN CITIES/CHANHASSEN MN
200 PM CDT TUE JUL 25 2017


NOTE: "FAIR" INDICATES FEW OR NO CLOUDS BELOW 12,000 FEET WITH NO
SIGNIFICANT WEATHER AND/OR OBSTRUCTIONS TO VISIBILITY. N/A MEANS
CURRENT SKY AND/OR WEATHER CONDITIONS ARE NOT AVAILABLE.

MNZ060>063-068>070-252000-
   Twin Cities Metro

CITY           SKY/WX    TMP DP  RH WIND       PRES   REMARKS
TWIN CITIES    CLOUDY    79  66  64 S16G22    29.97F
ST PAUL        CLOUDY    79  67  66 S13       29.97F
CRYSTAL        CLOUDY    79  64  60 S18G25    29.95S
LAKEVILLE      MOSUNNY   77  68  73 S10       29.98S
EDEN PRAIRIE   CLOUDY    78  68  71 S16       29.96S
SOUTH ST PAUL  CLOUDY    80  65  58 S13       29.97S
LAKE ELMO      FAIR      79  68  69 S16G24    29.99S
$$
MNZ001>005-007-008-013>017-022>024-027-028-252000-
   Northwest Minnesota

CITY           SKY/WX    TMP DP  RH WIND       PRES   REMARKS
BEMIDJI        CLOUDY    72  66  82 S8        29.92F
HALLOCK        CLOUDY    79  61  53 W12       29.85F
ROSEAU         MOSUNNY   79  72  78 SW12      29.84F
WARROAD        PTSUNNY   79  72  78 SW12      29.84F
CROOKSTON      MOSUNNY   79  70  73 W5        29.88S
FOSSTON        CLOUDY    73  66  78 SW6       29.91R
DETROIT LAKES  CLOUDY    73  66  78 SE7       29.92R
MOORHEAD       DRIZZLE   75  68  78 S3        29.89S
PARK RAPIDS    CLOUDY    75  67  76 SE14      29.90F
MAHNOMEN       FAIR      76  68  74 S6        29.88F
$$
MNZ006-009>011-018-025>026-252000-
   North Central Minnesota

CITY           SKY/WX    TMP DP  RH WIND       PRES   REMARKS
BAUDETTE       CLOUDY    78  68  71 S15       29.86F
FLAG ISLAND    CLOUDY    73  68  83 S8        29.83R
INTL FALLS     CLOUDY    76  65  68 S10G20    29.89F
WASKISH        CLOUDY    75  68  78 S8        29.90F
BIG FORK       CLOUDY    72  66  83 S8        29.94F
LONGVILLE      CLOUDY    70  66  88 S3        29.97R
GRAND RAPIDS   CLOUDY    70  65  84 S7        29.99R
CRANE LAKE     CLOUDY    73  64  73 S7        29.95S
ORR            CLOUDY    72  63  73 S8        29.92F
COOK           CLOUDY    73  64  73 S7        29.96S
WALKER         MOCLDY    70  65  85 SE5       29.91F
$$
MNZ012-019>021-037-252000-
   Northeast Minnesota

CITY           SKY/WX    TMP DP  RH WIND       PRES   REMARKS
DULUTH         CLOUDY    73  65  75 S10       29.98F
ELY            MOSUNNY   77  61  57 S9        29.96F
HIBBING        CLOUDY    72  66  81 S6        29.97R
EVELETH        CLOUDY    75  63  64 S10       29.98S
DULUTH HARBOR  CLOUDY    64  61  88 NE8       29.99R
TWO HARBORS    CLOUDY    79  68  69 S3        29.98S
SILVER BAY     MOSUNNY   73  64  73 SE5       29.98F
GRAND MARAIS     N/A     65  57  75 E5        30.02F
G MARAIS ARPRT CLOUDY    66  57  72 S9        30.07F
$$
MNZ029>031-032-039>041-046>048-054>057-064-252000-
   West Central Minnesota

CITY           SKY/WX    TMP DP  RH WIND       PRES   REMARKS
FERGUS FALLS   CLOUDY    75  66  73 CALM      29.92R
WHEATON        PTSUNNY   79  68  69 NE3       29.92R
MORRIS         PTSUNNY   84  70  61 SE13      29.88F
ALEXANDRIA     CLOUDY    77  69  76 SE14      29.92F
ELBOW LAKE     CLOUDY    76  68  76 S5        29.92R HAZE
WADENA         CLOUDY    73  66  78 SE12      29.91F
GLENWOOD       MOSUNNY   75  70  83 SE9       29.94F
APPLETON       CLOUDY    82  70  65 E6        29.88F
BENSON         CLOUDY    82  72  69 S6        29.91F
ORTONVILLE     MOSUNNY   82  70  65 MISG      29.88F
MADISON        PTSUNNY   88  73  62 NE5       29.89S HX  96
WILLMAR        PTSUNNY   82  73  74 S6        29.93F
$$
MNZ033>034-036-042>043-049>051-058-059-252000-
   Central Minnesota

CITY           SKY/WX    TMP DP  RH WIND       PRES   REMARKS
ST CLOUD       CLOUDY    76  68  76 S13       29.95F
SAUK CENTRE    CLOUDY    76  69  78 S12       29.94S
PAYNESVILLE    CLOUDY    79  69  71 S6        29.94F
AITKIN         CLOUDY    72  66  83 S7        29.95S
PINE RIVER     CLOUDY    70  64  83 S3        29.99F
BRAINERD       CLOUDY    72  65  78 S8        29.95F
STAPLES        CLOUDY    72  64  78 S9        29.94F
LONG PRAIRIE   CLOUDY    72  68  88 E6        29.95S
LITTLE FALLS   CLOUDY    73  64  73 S10       29.95F
LITCHFIELD     PTSUNNY   82  72  69 S9        29.94F
BUFFALO        CLOUDY    80  66  63 S9G21     29.96F
MAPLE LAKE     PTSUNNY   81  71  70 S7        29.95F
HUTCHINSON     CLOUDY    83  73  72 S12       29.95S
$$
MNZ037-044-045-052-053-252000-
   East Central Minnesota

CITY           SKY/WX    TMP DP  RH WIND       PRES   REMARKS
PRINCETON      CLOUDY    77  66  69 S12       29.97S
MORA           CLOUDY    73  66  78 E3        29.98F
CAMBRIDGE      PTSUNNY   81  64  57 S14G21    29.95S
RUSH CITY      CLOUDY    76  67  74 SE9       29.96F
MOOSE LAKE     CLOUDY    72  63  73 S6        29.97R
HINCKLEY       CLOUDY    73  68  83 SE10      29.98S
CLOQUET        CLOUDY    73  63  68 S6G22     29.99F
MCGREGOR       CLOUDY    72  64  78 S9        29.97F
$$
MNZ071>073-080-081-089-090-097-098-252000-
   Southwest Minnesota

CITY           SKY/WX    TMP DP  RH WIND       PRES   REMARKS
MONTEVIDEO     MOSUNNY   91  72  52 CALM      29.90F HX  98
GRANITE FALLS  MOSUNNY   87  74  66 SE8       29.91F HX  96
CANBY          MOSUNNY   91  69  47 E3        29.90S HX  95
MARSHALL       MOSUNNY   88  73  61 W9        29.90F HX  95
REDWOOD FALLS  MOSUNNY   87  73  62 S13       29.91S HX  94
OLIVIA         MOSUNNY   84  70  61 S12G17    29.92S
PIPESTONE      SUNNY     90  73  58 SW16G22   29.93R HX  98
WINDOM         SUNNY     88  70  55 S17G23    29.94S HX  92
WORTHINGTON    SUNNY     88  73  61 S16G26    29.94F HX  95
JACKSON        SUNNY     86  70  58 S20G25    29.96F HX  90
TRACY          SUNNY     88  75  66 SW10      29.93S HX  97
SLAYTON        MOSUNNY   87  71  60 SW17G24   29.94S HX  92
$$
MNZ065>067-074>077-082>085-091>093-252000-
   South Central Minnesota

CITY           SKY/WX    TMP DP  RH WIND       PRES   REMARKS
MANKATO        PTSUNNY   82  72  71 S14G24    29.96F
NEW ULM        MOSUNNY   84  72  65 S17       29.93F
ST JAMES       SUNNY     84  72  65 S18G25    29.95F
FAIRMONT       MOSUNNY   84  72  67 S22G29    29.96F
GLENCOE        PTSUNNY   82  74  76 S9G18     29.95S
FARIBAULT      CLOUDY    77  68  73 S20G29    29.98F
OWATONNA       CLOUDY    79  70  73 S23G32    29.98F
WASECA         MOSUNNY   79  70  73 S17G28    30.00S
ALBERT LEA     CLOUDY    81  68  65 S20G30    30.01F
$$
MNZ078>079-086>088-094>096-252000-
   Southeast Minnesota

CITY           SKY/WX    TMP DP  RH WIND       PRES   REMARKS
ROCHESTER      SUNNY     77  66  68 S29G38    30.02F
RED WING       MOSUNNY   81  64  57 S13       29.97F
STANTON        SUNNY     80  67  65 S13G22    29.97F
DODGE CENTER   MOSUNNY   75  64  69 S22G30    30.02S
WINONA         CLOUDY    73  66  78 SE10      30.04F
AUSTIN         MOSUNNY   77  66  69 S14G26    30.03F
PRESTON        SUNNY     77  65  65 S17G26    30.06F
$$
ABBREVIATIONS USED IN REMARKS
   TC - TEMPERATURES IN CELSIUS
  WCI - WIND CHILL INDEX
   HX - HEAT INDEX
  VSB - VISIBILITY
$$




USA.gov is the U.S. government's official web portal to all federal, state and local government web resources and services.